This is the latest recevied weather packets stored in our database for station/object HK4D-13. If no packets are shown the sender has not sent any weather packets the latest 10 day(s).
| Time | Temp. | Humidity | Pressure | Rain* | Wind** | Luminosity | Snow |
|---|---|---|---|---|---|---|---|
| 1787588232 | 21.67° C | 51% | 1013 hPa | 0 mm | - | - | - |
| 1787587632 | 21.67° C | 53% | 1013 hPa | 0 mm | - | - | - |
| 1787587032 | 21.67° C | 57% | 1013 hPa | 0 mm | - | - | - |
| 1787586431 | 21.67° C | 59% | 1013 hPa | 0 mm | - | - | - |
| 1787585831 | 21.67° C | 59% | 1013 hPa | 0 mm | - | - | - |
| 1787585230 | 21.67° C | 61% | 1014 hPa | 0 mm | - | - | - |
| 1787584630 | 21.67° C | 62% | 1014 hPa | 0 mm | - | - | - |
| 1787584029 | 21.67° C | 63% | 1014 hPa | 0 mm | - | - | - |
| 1787583429 | 21.67° C | 67% | 1014 hPa | 0 mm | - | - | - |
| 1787582828 | 21.67° C | 69% | 1014 hPa | 0 mm | - | - | - |
| 1787582228 | 17.78° C | 72% | 1014 hPa | 0 mm | - | - | - |
| 1787581627 | 17.78° C | 72% | 1015 hPa | 0 mm | - | - | - |
| 1787581027 | 17.22° C | 74% | 1015 hPa | 0 mm | - | - | - |
| 1787580426 | 17.22° C | 77% | 1015 hPa | 0 mm | - | - | - |
| 1787579826 | 16.67° C | 78% | 1015 hPa | 0 mm | - | - | - |
| 1787579225 | 16.67° C | 78% | 1015 hPa | 0 mm | - | - | - |
| 1787578625 | 15° C | 89% | 1015 hPa | 0 mm | - | - | - |
| 1787578024 | 14.44° C | 91% | 1016 hPa | 0 mm | - | - | - |
| 1787577424 | 14.44° C | 93% | 1016 hPa | 0 mm | - | - | - |
| 1787576823 | 13.89° C | 96% | 1016 hPa | 0 mm | - | - | - |
| 1787576223 | 13.33° C | 99% | 1016 hPa | 0 mm | - | - | - |
| 1787575622 | 13.33° C | 99% | 1016 hPa | 0 mm | - | - | - |
| 1787575022 | 13.33° C | 98% | 1016 hPa | 0 mm | - | - | - |
| 1787574421 | 13.33° C | 98% | 1016 hPa | 0 mm | - | - | - |
| 1787573821 | 13.33° C | 98% | 1016 hPa | 0 mm | - | - | - |
* Rain latest hour (hover to see other rain measurements)
** Current wind speed in m/s (hover to see current wind gust speed)